Location: Ravensburg
(47.7866°N, 9.6124°E)
Time: 20:37:57
(UTC+02:00)

ITAMSAT 1 - Pass Details

Date: 20 March 2026
Orbit: 782 x 793 km, 98.7° (Epoch: 14 April)

Event Time Altitude Azimuth Distance (km) Brightness Sun altitude
Exits shadow 21:10:46 51° 47° (NE) 982 8.0 -25.8°
Drops below altitude 10° 21:15:18 10° 354° (N) 2,359 10.6 -26.4°
Sets 21:17:41 0° 350° (N) 3,294 11.5 -26.7°
